| time (UTC) | temp F | wind direction | speed MPH | gust MPH | rain 1hr in | rain 24hr in | rain mn in | humidity % | barometer mb |
| 20260902031522 | 75 | 242 | 0.0 | 0.0 | 0.00 | 0.00 | 0.00 | 47 | 1001.0 |
| 20260902031345 | 76 | 241 | 0.0 | 0.0 | 0.00 | 0.00 | 0.00 | 47 | 1002.4 |
| 20260902030846 | 75 | 246 | 0.0 | 0.0 | 0.00 | 0.00 | 0.00 | 48 | 1002.4 |
| 20260902030332 | 75 | 194 | 0.0 | 0.0 | 0.00 | 0.00 | 0.00 | 47 | 1002.3 |
| 20260902030111 | 75 | 201 | 0.0 | 0.0 | 0.00 | 0.00 | 0.00 | 47 | 1001.0 |
| 20260902025826 | 75 | 165 | 0.0 | 0.0 | 0.00 | 0.00 | 0.00 | 52 | 1002.2 |
| 20260902025328 | 76 | 257 | 0.0 | 0.0 | 0.00 | 0.00 | 0.00 | 48 | 1002.2 |
| 20260902024838 | 76 | 113 | 0.0 | 0.0 | 0.00 | 0.00 | 0.00 | 49 | 1002.1 |
| 20260902024612 | 76 | 113 | 0.0 | 0.0 | 0.00 | 0.00 | 0.00 | 49 | 1000.7 |
| 20260902024347 | 77 | 113 | 0.0 | 0.0 | 0.00 | 0.00 | 0.00 | 46 | 1002.1 |
| 20260902023840 | 77 | 115 | 0.0 | 0.0 | 0.00 | 0.00 | 0.00 | 45 | 1002.0 |
| 20260902023327 | 78 | 124 | 0.0 | 0.0 | 0.00 | 0.00 | 0.00 | 45 | 1002.1 |
| 20260902023008 | 77 | 155 | 0.0 | 0.0 | 0.00 | 0.00 | 0.00 | 45 | 1000.8 |
| 20260902022833 | 78 | 160 | 0.0 | 1.0 | 0.00 | 0.00 | 0.00 | 45 | 1002.1 |
| 20260902022334 | 78 | 127 | 0.0 | 1.0 | 0.00 | 0.00 | 0.00 | 43 | 1002.1 |
| 20260902021818 | 77 | 160 | 0.0 | 0.0 | 0.00 | 0.00 | 0.00 | 43 | 1002.1 |
| 20260902021649 | 77 | 148 | 0.0 | 0.0 | 0.00 | 0.00 | 0.00 | 44 | 1000.8 |
| 20260902021325 | 77 | 85 | 0.0 | 0.0 | 0.00 | 0.00 | 0.00 | 45 | 1002.2 |
| 20260902020823 | 76 | 85 | 0.0 | 0.0 | 0.00 | 0.00 | 0.00 | 47 | 1002.3 |
| 20260902020328 | 75 | 79 | 0.0 | 0.0 | 0.00 | 0.00 | 0.00 | 52 | 1002.4 |
| 20260902020017 | 75 | 87 | 0.0 | 0.0 | 0.00 | 0.00 | 0.00 | 53 | 1001.0 |
| 20260902015835 | 75 | 97 | 0.0 | 0.0 | 0.00 | 0.00 | 0.00 | 55 | 1002.3 |
| 20260902015339 | 75 | 141 | 0.0 | 0.0 | 0.00 | 0.00 | 0.00 | 55 | 1002.4 |
| 20260902014837 | 75 | 143 | 0.0 | 0.0 | 0.00 | 0.00 | 0.00 | 56 | 1002.3 |
| 20260902014603 | 74 | 151 | 0.0 | 0.0 | 0.00 | 0.00 | 0.00 | 58 | 1001.1 |
| 20260902014345 | 75 | 118 | 0.0 | 0.0 | 0.00 | 0.00 | 0.00 | 59 | 1002.4 |
| 20260902013835 | 75 | 121 | 0.0 | 0.0 | 0.00 | 0.00 | 0.00 | 63 | 1002.5 |
| 20260902013405 | 75 | 251 | 0.0 | 0.0 | 0.00 | 0.00 | 0.00 | 59 | 1002.6 |
| 20260902013102 | 75 | 280 | 0.0 | 0.0 | 0.00 | 0.00 | 0.00 | 58 | 1001.4 |
| 20260902012840 | 75 | 270 | 0.0 | 1.0 | 0.00 | 0.00 | 0.00 | 57 | 1002.8 |
| 20260902012346 | 75 | 239 | 0.0 | 1.0 | 0.00 | 0.00 | 0.00 | 59 | 1002.8 |
| 20260902011825 | 75 | 214 | 0.0 | 8.0 | 0.00 | 0.00 | 0.00 | 59 | 1002.8 |
| 20260902011508 | 74 | 286 | 0.0 | 15.0 | 0.00 | 0.00 | 0.00 | 60 | 1001.6 |
| 20260902011332 | 75 | 158 | 3.0 | 22.0 | 0.00 | 0.00 | 0.00 | 59 | 1002.8 |
| 20260902010856 | 75 | 210 | 10.0 | 22.0 | 0.00 | 0.00 | 0.00 | 65 | 1002.5 |
| 20260902010320 | 74 | 240 | 0.0 | 5.0 | 0.00 | 0.00 | 0.00 | 61 | 1002.3 |
| 20260902010105 | 74 | 160 | 0.0 | 0.0 | 0.00 | 0.00 | 0.00 | 66 | 1001.0 |
| 20260902005820 | 74 | 263 | 0.0 | 0.0 | 0.00 | 0.00 | 0.00 | 65 | 1002.5 |
| 20260902005322 | 75 | 231 | 0.0 | 0.0 | 0.00 | 0.00 | 0.00 | 59 | 1002.6 |
| 20260902004848 | 75 | 256 | 0.0 | 1.0 | 0.00 | 0.00 | 0.00 | 61 | 1002.7 |
| 20260902004608 | 75 | 231 | 0.0 | 1.0 | 0.00 | 0.00 | 0.00 | 62 | 1001.3 |
| 20260902004328 | 75 | 236 | 0.0 | 0.0 | 0.00 | 0.00 | 0.00 | 61 | 1002.6 |
| 20260902003829 | 75 | 259 | 0.0 | 0.0 | 0.00 | 0.00 | 0.00 | 67 | 1002.2 |
| 20260902003339 | 76 | 259 | 0.0 | 0.0 | 0.00 | 0.00 | 0.00 | 61 | 1002.0 |
| 20260902003107 | 75 | 266 | 0.0 | 0.0 | 0.00 | 0.00 | 0.00 | 59 | 1000.5 |
| 20260902002853 | 75 | 215 | 0.0 | 0.0 | 0.00 | 0.00 | 0.00 | 57 | 1001.8 |
| 20260902002343 | 75 | 251 | 0.0 | 0.0 | 0.00 | 0.00 | 0.00 | 58 | 1002.0 |
| 20260902001831 | 75 | 251 | 0.0 | 0.0 | 0.00 | 0.00 | 0.00 | 56 | 1001.8 |
| 20260902001647 | 75 | 198 | 0.0 | 0.0 | 0.00 | 0.00 | 0.00 | 53 | 1000.5 |
| 20260902001329 | 75 | 198 | 0.0 | 0.0 | 0.00 | 0.00 | 0.00 | 56 | 1001.8 |
| 20260902000829 | 75 | 236 | 0.0 | 1.0 | 0.00 | 0.00 | 0.00 | 69 | 1001.9 |
| 20260902000331 | 76 | 266 | 0.0 | 1.0 | 0.00 | 0.00 | 0.00 | 63 | 1001.9 |
| 20260901235837 | 78 | 264 | 0.0 | 0.0 | 0.00 | 0.00 | 0.00 | 52 | 1001.9 |
| 20260901235322 | 77 | 263 | 0.0 | 0.0 | 0.00 | 0.00 | 0.00 | 52 | 1001.9 |
| 20260901234832 | 77 | 242 | 0.0 | 0.0 | 0.00 | 0.00 | 0.00 | 53 | 1002.1 |
| 20260901234504 | 75 | 71 | 0.0 | 0.0 | 0.00 | 0.00 | 0.00 | 50 | 1000.7 |
| 20260901234326 | 76 | 11 | 0.0 | 0.0 | 0.00 | 0.00 | 0.00 | 52 | 1002.0 |
| 20260901233828 | 75 | 11 | 0.0 | 0.0 | 0.00 | 0.00 | 0.00 | 53 | 1002.0 |
| 20260901233328 | 75 | 9 | 0.0 | 0.0 | 0.00 | 0.00 | 0.00 | 58 | 1002.0 |
| 20260901233053 | 74 | 260 | 0.0 | 0.0 | 0.00 | 0.00 | 0.00 | 62 | 1000.7 |
| 20260901232838 | 74 | 260 | 0.0 | 0.0 | 0.00 | 0.00 | 0.00 | 65 | 1002.2 |
| 20260901232329 | 74 | 226 | 0.0 | 0.0 | 0.00 | 0.00 | 0.00 | 66 | 1002.3 |
| 20260901231824 | 75 | 281 | 0.0 | 0.0 | 0.00 | 0.00 | 0.00 | 63 | 1002.2 |
| 20260901231555 | 74 | 287 | 0.0 | 0.0 | 0.00 | 0.00 | 0.00 | 61 | 1000.8 |
| 20260901231325 | 75 | 329 | 0.0 | 0.0 | 0.00 | 0.00 | 0.00 | 64 | 1002.2 |
| 20260901230849 | 75 | 231 | 0.0 | 0.0 | 0.00 | 0.00 | 0.00 | 60 | 1002.2 |
| 20260901230320 | 75 | 264 | 0.0 | 0.0 | 0.00 | 0.00 | 0.00 | 61 | 1002.3 |
| 20260901230104 | 74 | 242 | 0.0 | 0.0 | 0.00 | 0.00 | 0.00 | 58 | 1000.9 |
| 20260901225839 | 74 | 231 | 0.0 | 0.0 | 0.00 | 0.00 | 0.00 | 60 | 1002.3 |
| 20260901225341 | 74 | 239 | 0.0 | 0.0 | 0.00 | 0.00 | 0.00 | 60 | 1002.4 |
| 20260901224844 | 74 | 236 | 0.0 | 0.0 | 0.00 | 0.00 | 0.00 | 58 | 1002.4 |
| 20260901224650 | 73 | 256 | 0.0 | 0.0 | 0.00 | 0.00 | 0.00 | 58 | 1001.1 |
| 20260901224341 | 74 | 240 | 0.0 | 0.0 | 0.00 | 0.00 | 0.00 | 59 | 1002.5 |
| 20260901223826 | 73 | 229 | 0.0 | 1.0 | 0.00 | 0.00 | 0.00 | 61 | 1002.7 |
| 20260901223319 | 74 | 239 | 0.0 | 1.0 | 0.00 | 0.00 | 0.00 | 64 | 1002.8 |
| 20260901223103 | 73 | 232 | 0.0 | 1.0 | 0.00 | 0.00 | 0.00 | 65 | 1001.5 |
| 20260901222827 | 74 | 217 | 0.0 | 1.0 | 0.00 | 0.00 | 0.00 | 66 | 1003.0 |
| 20260901222327 | 74 | 242 | 0.0 | 1.0 | 0.00 | 0.00 | 0.00 | 66 | 1003.0 |
| 20260901221832 | 74 | 235 | 0.0 | 1.0 | 0.00 | 0.00 | 0.00 | 64 | 1003.2 |
| 20260901221511 | 74 | 236 | 0.0 | 2.0 | 0.00 | 0.00 | 0.00 | 63 | 1002.0 |
| 20260901221333 | 74 | 236 | 0.0 | 6.0 | 0.00 | 0.00 | 0.00 | 63 | 1003.4 |
| 20260901220843 | 74 | 251 | 0.0 | 6.0 | 0.00 | 0.00 | 0.00 | 59 | 1003.4 |
| 20260901220339 | 73 | 226 | 4.0 | 8.0 | 0.00 | 0.00 | 0.00 | 57 | 1003.4 |
| 20260901215822 | 73 | 246 | 8.0 | 9.0 | 0.00 | 0.00 | 0.00 | 65 | 1003.5 |
| 20260901215326 | 73 | 248 | 3.0 | 7.0 | 0.00 | 0.00 | 0.00 | 68 | 1003.5 |
| 20260901214857 | 73 | 232 | 4.0 | 7.0 | 0.00 | 0.00 | 0.00 | 68 | 1003.7 |
| 20260901214610 | 73 | 243 | 4.0 | 7.0 | 0.00 | 0.00 | 0.00 | 68 | 1002.4 |
| 20260901214355 | 73 | 228 | 0.0 | 7.0 | 0.00 | 0.00 | 0.00 | 68 | 1003.8 |
| 20260901213327 | 73 | 231 | 4.0 | 7.0 | 0.00 | 0.00 | 0.00 | 70 | 1003.9 |
| 20260901213115 | 72 | 243 | 5.0 | 7.0 | 0.00 | 0.00 | 0.00 | 70 | 1002.6 |
| 20260901212831 | 73 | 250 | 5.0 | 7.0 | 0.00 | 0.00 | 0.00 | 68 | 1004.0 |
| 20260901212325 | 73 | 191 | 3.0 | 7.0 | 0.00 | 0.00 | 0.00 | 71 | 1004.1 |
| 20260901211832 | 73 | 231 | 4.0 | 7.0 | 0.00 | 0.00 | 0.00 | 68 | 1004.1 |
| 20260901211558 | 72 | 231 | 3.0 | 7.0 | 0.00 | 0.00 | 0.00 | 68 | 1002.8 |
| 20260901211335 | 73 | 236 | 4.0 | 7.0 | 0.00 | 0.00 | 0.00 | 67 | 1004.2 |
| 20260901210841 | 73 | 231 | 4.0 | 6.0 | 0.00 | 0.00 | 0.00 | 67 | 1004.2 |
| 20260901210322 | 72 | 231 | 3.0 | 7.0 | 0.00 | 0.00 | 0.00 | 68 | 1004.3 |
| 20260901210110 | 72 | 231 | 3.0 | 7.0 | 0.00 | 0.00 | 0.00 | 68 | 1003.0 |
| 20260901205834 | 72 | 216 | 3.0 | 6.0 | 0.00 | 0.00 | 0.00 | 70 | 1004.4 |
| 20260901205316 | 72 | 248 | 4.0 | 6.0 | 0.00 | 0.00 | 0.00 | 70 | 1004.5 |
| 20260901204858 | 72 | 226 | 0.0 | 6.0 | 0.00 | 0.00 | 0.00 | 68 | 1004.5 |
| 20260901204603 | 72 | 255 | 4.0 | 6.0 | 0.00 | 0.00 | 0.00 | 68 | 1003.3 |
| 20260901204326 | 72 | 228 | 4.0 | 6.0 | 0.00 | 0.00 | 0.00 | 69 | 1004.6 |
| 20260901203823 | 72 | 246 | 0.0 | 6.0 | 0.00 | 0.00 | 0.00 | 67 | 1004.6 |
| 20260901203340 | 72 | 242 | 0.0 | 0.0 | 0.00 | 0.00 | 0.00 | 67 | 1004.6 |
| 20260901203131 | 72 | 242 | 0.0 | 0.0 | 0.00 | 0.00 | 0.00 | 63 | 1003.4 |
| 20260901202824 | 72 | 242 | 0.0 | 0.0 | 0.00 | 0.00 | 0.00 | 65 | 1004.6 |
| 20260901202347 | 72 | 208 | 0.0 | 1.0 | 0.00 | 0.00 | 0.00 | 65 | 1004.8 |
| 20260901201828 | 72 | 226 | 0.0 | 1.0 | 0.00 | 0.00 | 0.00 | 63 | 1004.8 |
| 20260901201605 | 71 | 249 | 0.0 | 4.0 | 0.00 | 0.00 | 0.00 | 63 | 1003.6 |
| 20260901201321 | 72 | 222 | 0.0 | 4.0 | 0.00 | 0.00 | 0.00 | 64 | 1004.9 |
| 20260901200830 | 72 | 231 | 0.0 | 1.0 | 0.00 | 0.00 | 0.00 | 68 | 1004.9 |
| 20260901200345 | 71 | 242 | 0.0 | 1.0 | 0.00 | 0.00 | 0.00 | 63 | 1005.1 |
| 20260901200053 | 71 | 232 | 0.0 | 1.0 | 0.00 | 0.00 | 0.00 | 64 | 1003.9 |
| 20260901195833 | 71 | 246 | 0.0 | 1.0 | 0.00 | 0.00 | 0.00 | 64 | 1005.2 |
| 20260901195318 | 71 | 231 | 0.0 | 0.0 | 0.00 | 0.00 | 0.00 | 66 | 1005.3 |
| 20260901194828 | 71 | 251 | 0.0 | 1.0 | 0.00 | 0.00 | 0.00 | 65 | 1005.4 |
| 20260901194329 | 71 | 226 | 0.0 | 1.0 | 0.00 | 0.00 | 0.00 | 64 | 1005.4 |
| 20260901193837 | 70 | 205 | 0.0 | 1.0 | 0.00 | 0.00 | 0.00 | 66 | 1005.6 |
| 20260901193347 | 70 | 235 | 0.0 | 4.0 | 0.00 | 0.00 | 0.00 | 66 | 1005.7 |
| 20260901193101 | 69 | 231 | 0.0 | 5.0 | 0.00 | 0.00 | 0.00 | 67 | 1004.6 |
| 20260901192835 | 70 | 242 | 0.0 | 5.0 | 0.00 | 0.00 | 0.00 | 66 | 1005.8 |
| 20260901192335 | 70 | 222 | 2.0 | 5.0 | 0.00 | 0.00 | 0.00 | 65 | 1005.9 |
| 20260901191835 | 69 | 236 | 1.0 | 6.0 | 0.00 | 0.00 | 0.00 | 69 | 1006.0 |
| 20260901191608 | 69 | 236 | 4.0 | 6.0 | 0.00 | 0.00 | 0.00 | 67 | 1004.9 |
| 20260901191327 | 69 | 235 | 5.0 | 6.0 | 0.00 | 0.00 | 0.00 | 66 | 1006.2 |
| 20260901190825 | 70 | 229 | 0.0 | 6.0 | 0.00 | 0.00 | 0.00 | 65 | 1006.3 |
| 20260901190328 | 70 | 240 | 4.0 | 6.0 | 0.00 | 0.00 | 0.00 | 67 | 1006.4 |
| 20260901190106 | 69 | 231 | 3.0 | 7.0 | 0.00 | 0.00 | 0.00 | 66 | 1005.2 |
| 20260901185835 | 70 | 255 | 4.0 | 7.0 | 0.00 | 0.00 | 0.00 | 65 | 1006.5 |
| 20260901185339 | 70 | 239 | 5.0 | 7.0 | 0.00 | 0.00 | 0.00 | 66 | 1006.6 |
| 20260901184832 | 71 | 222 | 2.0 | 7.0 | 0.00 | 0.00 | 0.00 | 66 | 1006.7 |
| 20260901184604 | 70 | 165 | 0.0 | 0.0 | 0.00 | 0.00 | 0.00 | 62 | 1005.6 |
| 20260901184338 | 71 | 228 | 0.0 | 0.0 | 0.00 | 0.00 | 0.00 | 60 | 1006.8 |
| 20260901183833 | 70 | 253 | 0.0 | 0.0 | 0.00 | 0.00 | 0.00 | 61 | 1006.9 |
| 20260901183326 | 70 | 260 | 0.0 | 0.0 | 0.00 | 0.00 | 0.00 | 60 | 1007.0 |
| 20260901183055 | 69 | 274 | 0.0 | 0.0 | 0.00 | 0.00 | 0.00 | 61 | 1005.9 |
| 20260901182834 | 70 | 270 | 0.0 | 0.0 | 0.00 | 0.00 | 0.00 | 61 | 1007.1 |
| 20260901182350 | 69 | 260 | 0.0 | 0.0 | 0.00 | 0.00 | 0.00 | 62 | 1007.3 |
| 20260901181839 | 69 | 266 | 0.0 | 0.0 | 0.00 | 0.00 | 0.00 | 63 | 1007.4 |
| 20260901181608 | 69 | 279 | 0.0 | 0.0 | 0.00 | 0.00 | 0.00 | 63 | 1006.2 |
| 20260901181334 | 69 | 280 | 0.0 | 0.0 | 0.00 | 0.00 | 0.00 | 64 | 1007.5 |
| 20260901180839 | 69 | 250 | 0.0 | 0.0 | 0.00 | 0.00 | 0.00 | 64 | 1007.5 |
| 20260901180328 | 69 | 245 | 0.0 | 0.0 | 0.00 | 0.00 | 0.00 | 62 | 1007.5 |
| 20260901180059 | 69 | 239 | 0.0 | 0.0 | 0.00 | 0.00 | 0.00 | 60 | 1006.4 |
| 20260901175833 | 70 | 253 | 0.0 | 0.0 | 0.00 | 0.00 | 0.00 | 60 | 1007.6 |
| 20260901175319 | 70 | 249 | 0.0 | 0.0 | 0.00 | 0.00 | 0.00 | 60 | 1007.6 |
| 20260901174828 | 69 | 221 | 0.0 | 0.0 | 0.00 | 0.00 | 0.00 | 62 | 1007.7 |
| 20260901174605 | 68 | 214 | 0.0 | 0.0 | 0.00 | 0.00 | 0.00 | 62 | 1006.5 |
| 20260901174326 | 68 | 226 | 0.0 | 0.0 | 0.00 | 0.00 | 0.00 | 65 | 1007.8 |
| 20260901173821 | 68 | 232 | 0.0 | 0.0 | 0.00 | 0.00 | 0.00 | 64 | 1007.8 |
| 20260901173333 | 67 | 229 | 0.0 | 0.0 | 0.00 | 0.00 | 0.00 | 65 | 1007.9 |
| 20260901172829 | 67 | 239 | 0.0 | 0.0 | 0.00 | 0.00 | 0.00 | 66 | 1007.9 |
| 20260901172329 | 67 | 241 | 0.0 | 0.0 | 0.00 | 0.00 | 0.00 | 68 | 1008.0 |
| 20260901171818 | 67 | 228 | 0.0 | 0.0 | 0.00 | 0.00 | 0.00 | 66 | 1008.0 |
| 20260901171615 | 66 | 267 | 0.0 | 0.0 | 0.00 | 0.00 | 0.00 | 67 | 1006.9 |
| 20260901171327 | 67 | 231 | 0.0 | 0.0 | 0.00 | 0.00 | 0.00 | 67 | 1008.1 |
| 20260901170825 | 67 | 261 | 0.0 | 0.0 | 0.00 | 0.00 | 0.00 | 66 | 1008.2 |
| 20260901170343 | 67 | 259 | 0.0 | 0.0 | 0.00 | 0.00 | 0.00 | 67 | 1008.2 |
| 20260901170129 | 66 | 271 | 0.0 | 0.0 | 0.00 | 0.00 | 0.00 | 67 | 1007.1 |
| 20260901165820 | 67 | 286 | 0.0 | 0.0 | 0.00 | 0.00 | 0.00 | 64 | 1008.3 |
| 20260901165336 | 67 | 25 | 0.0 | 0.0 | 0.00 | 0.00 | 0.00 | 64 | 1008.3 |
| 20260901164817 | 67 | 30 | 0.0 | 0.0 | 0.00 | 0.00 | 0.00 | 66 | 1008.3 |
| 20260901164508 | 67 | 23 | 0.0 | 0.0 | 0.00 | 0.00 | 0.00 | 64 | 1007.2 |
| 20260901164331 | 67 | 34 | 0.0 | 0.0 | 0.00 | 0.00 | 0.00 | 64 | 1008.3 |
| 20260901163835 | 67 | 264 | 0.0 | 0.0 | 0.00 | 0.00 | 0.00 | 64 | 1008.5 |
| 20260901163338 | 67 | 263 | 0.0 | 0.0 | 0.00 | 0.00 | 0.00 | 64 | 1008.5 |
| 20260901163052 | 67 | 38 | 0.0 | 0.0 | 0.00 | 0.00 | 0.00 | 65 | 1007.4 |
| 20260901162826 | 66 | 38 | 0.0 | 0.0 | 0.00 | 0.00 | 0.00 | 65 | 1008.6 |
| 20260901162341 | 65 | 38 | 0.0 | 0.0 | 0.00 | 0.00 | 0.00 | 67 | 1008.6 |
| 20260901161831 | 65 | 25 | 0.0 | 0.0 | 0.00 | 0.00 | 0.00 | 67 | 1008.6 |
| 20260901161602 | 64 | 18 | 0.0 | 0.0 | 0.00 | 0.00 | 0.00 | 67 | 1007.6 |
| 20260901161339 | 65 | 31 | 0.0 | 0.0 | 0.00 | 0.00 | 0.00 | 67 | 1008.7 |
| 20260901160829 | 64 | 36 | 0.0 | 0.0 | 0.00 | 0.00 | 0.00 | 68 | 1008.8 |
| 20260901160333 | 64 | 27 | 0.0 | 0.0 | 0.00 | 0.00 | 0.00 | 67 | 1008.8 |
| 20260901160015 | 64 | 32 | 0.0 | 0.0 | 0.00 | 0.00 | 0.00 | 67 | 1007.9 |
| 20260901155832 | 64 | 72 | 0.0 | 0.0 | 0.00 | 0.00 | 0.00 | 68 | 1009.0 |
| 20260901155401 | 64 | 85 | 0.0 | 0.0 | 0.00 | 0.00 | 0.00 | 68 | 1009.1 |
| 20260901154828 | 64 | 46 | 0.0 | 0.0 | 0.00 | 0.00 | 0.00 | 69 | 1009.2 |
| 20260901154607 | 63 | 46 | 0.0 | 0.0 | 0.00 | 0.00 | 0.00 | 69 | 1008.1 |
| 20260901154349 | 63 | 25 | 0.0 | 0.0 | 0.00 | 0.00 | 0.00 | 68 | 1009.2 |
| 20260901153833 | 63 | 27 | 0.0 | 0.0 | 0.00 | 0.00 | 0.00 | 71 | 1009.2 |
| 20260901153325 | 63 | 40 | 0.0 | 0.0 | 0.00 | 0.00 | 0.00 | 70 | 1009.3 |
| 20260901153126 | 63 | 36 | 0.0 | 0.0 | 0.00 | 0.00 | 0.00 | 71 | 1008.3 |
| 20260901152830 | 63 | 43 | 0.0 | 0.0 | 0.00 | 0.00 | 0.00 | 69 | 1009.4 |
| 20260901152317 | 63 | 41 | 0.0 | 0.0 | 0.00 | 0.00 | 0.00 | 70 | 1009.4 |
| 20260901151826 | 63 | 39 | 0.0 | 0.0 | 0.00 | 0.00 | 0.00 | 69 | 1009.5 |
| 20260901151341 | 63 | 33 | 0.0 | 0.0 | 0.00 | 0.00 | 0.00 | 68 | 1009.5 |
| 20260901150819 | 64 | 36 | 0.0 | 0.0 | 0.00 | 0.00 | 0.00 | 67 | 1009.6 |
| 20260901150330 | 65 | 93 | 0.0 | 0.0 | 0.00 | 0.00 | 0.00 | 67 | 1009.7 |
| 20260901150058 | 64 | 93 | 0.0 | 0.0 | 0.00 | 0.00 | 0.00 | 68 | 1008.6 |
| 20260901145853 | 64 | 95 | 0.0 | 0.0 | 0.00 | 0.00 | 0.00 | 69 | 1009.7 |
| 20260901145339 | 63 | 95 | 0.0 | 0.0 | 0.00 | 0.00 | 0.00 | 72 | 1009.6 |
| 20260901144827 | 62 | 93 | 0.0 | 0.0 | 0.00 | 0.00 | 0.00 | 73 | 1009.6 |
| 20260901144556 | 61 | 93 | 0.0 | 0.0 | 0.00 | 0.00 | 0.00 | 74 | 1008.6 |
| 20260901144333 | 61 | 95 | 0.0 | 0.0 | 0.00 | 0.00 | 0.00 | 74 | 1009.6 |
| 20260901143824 | 61 | 110 | 0.0 | 0.0 | 0.00 | 0.00 | 0.00 | 74 | 1009.6 |
| 20260901143324 | 60 | 18 | 0.0 | 0.0 | 0.00 | 0.00 | 0.00 | 75 | 1009.5 |
| 20260901143059 | 60 | 44 | 0.0 | 0.0 | 0.00 | 0.00 | 0.00 | 75 | 1008.6 |
| 20260901142832 | 60 | 44 | 0.0 | 0.0 | 0.00 | 0.00 | 0.00 | 76 | 1009.6 |
| 20260901142323 | 60 | 98 | 0.0 | 0.0 | 0.00 | 0.00 | 0.00 | 75 | 1009.6 |
| 20260901141857 | 60 | 77 | 0.0 | 0.0 | 0.00 | 0.00 | 0.00 | 75 | 1009.5 |
| 20260901141555 | 60 | 110 | 0.0 | 0.0 | 0.00 | 0.00 | 0.00 | 75 | 1008.6 |
| 20260901141338 | 60 | 89 | 0.0 | 0.0 | 0.00 | 0.00 | 0.00 | 76 | 1009.6 |
| 20260901140822 | 59 | 90 | 0.0 | 0.0 | 0.00 | 0.00 | 0.00 | 77 | 1009.6 |
| 20260901140318 | 59 | 100 | 0.0 | 0.0 | 0.00 | 0.00 | 0.00 | 78 | 1009.6 |
| 20260901140140 | 58 | 105 | 0.0 | 0.0 | 0.00 | 0.00 | 0.00 | 78 | 1008.6 |
| 20260901135820 | 58 | 95 | 0.0 | 0.0 | 0.00 | 0.00 | 0.00 | 79 | 1009.6 |
| 20260901135326 | 58 | 57 | 0.0 | 0.0 | 0.00 | 0.00 | 0.00 | 79 | 1009.6 |
| 20260901134819 | 58 | 78 | 0.0 | 0.0 | 0.00 | 0.00 | 0.00 | 79 | 1009.5 |
| 20260901134502 | 57 | 82 | 0.0 | 0.0 | 0.00 | 0.00 | 0.00 | 80 | 1008.4 |
| 20260901134327 | 58 | 86 | 0.0 | 0.0 | 0.00 | 0.00 | 0.00 | 80 | 1009.5 |
| 20260901133826 | 58 | 84 | 0.0 | 0.0 | 0.00 | 0.00 | 0.00 | 80 | 1009.5 |
| 20260901133329 | 57 | 70 | 0.0 | 0.0 | 0.00 | 0.00 | 0.00 | 80 | 1009.5 |
| 20260901133059 | 57 | 83 | 0.0 | 0.0 | 0.00 | 0.00 | 0.00 | 81 | 1008.4 |
| 20260901132832 | 57 | 85 | 0.0 | 0.0 | 0.00 | 0.00 | 0.00 | 80 | 1009.5 |
| 20260901132358 | 58 | 74 | 0.0 | 0.0 | 0.00 | 0.00 | 0.00 | 80 | 1009.5 |
| 20260901131823 | 58 | 67 | 0.0 | 0.0 | 0.00 | 0.00 | 0.00 | 80 | 1009.4 |
| 20260901131612 | 57 | 66 | 0.0 | 0.0 | 0.00 | 0.00 | 0.00 | 80 | 1008.5 |
| 20260901131323 | 58 | 84 | 0.0 | 0.0 | 0.00 | 0.00 | 0.00 | 79 | 1009.6 |
| 20260901130830 | 58 | 110 | 0.0 | 0.0 | 0.00 | 0.00 | 0.00 | 80 | 1009.5 |
| 20260901130337 | 58 | 60 | 0.0 | 0.0 | 0.00 | 0.00 | 0.00 | 79 | 1009.5 |
| 20260901130054 | 58 | 54 | 0.0 | 0.0 | 0.00 | 0.00 | 0.00 | 79 | 1008.4 |
| 20260901125830 | 59 | 74 | 0.0 | 0.0 | 0.00 | 0.00 | 0.00 | 78 | 1009.4 |
| 20260901125325 | 58 | 86 | 0.0 | 0.0 | 0.00 | 0.00 | 0.00 | 79 | 1009.4 |
| 20260901124827 | 58 | 77 | 0.0 | 0.0 | 0.00 | 0.00 | 0.00 | 79 | 1009.3 |
| 20260901124613 | 58 | 100 | 0.0 | 0.0 | 0.00 | 0.00 | 0.00 | 79 | 1008.4 |
| 20260901124342 | 59 | 100 | 0.0 | 0.0 | 0.00 | 0.00 | 0.00 | 79 | 1009.4 |
| 20260901123821 | 59 | 99 | 0.0 | 0.0 | 0.00 | 0.00 | 0.00 | 80 | 1009.3 |
| 20260901123333 | 58 | 92 | 0.0 | 0.0 | 0.00 | 0.00 | 0.00 | 80 | 1009.3 |
| 20260901123100 | 58 | 101 | 0.0 | 0.0 | 0.00 | 0.00 | 0.00 | 81 | 1008.2 |
| 20260901122827 | 59 | 81 | 0.0 | 0.0 | 0.00 | 0.00 | 0.00 | 80 | 1009.2 |
| 20260901122318 | 59 | 97 | 0.0 | 0.0 | 0.00 | 0.00 | 0.00 | 80 | 1009.2 |
| 20260901121837 | 59 | 94 | 0.0 | 0.0 | 0.00 | 0.00 | 0.00 | 80 | 1009.2 |
| 20260901121608 | 59 | 68 | 0.0 | 0.0 | 0.00 | 0.00 | 0.00 | 80 | 1008.2 |
| 20260901121321 | 59 | 85 | 0.0 | 0.0 | 0.00 | 0.00 | 0.00 | 77 | 1009.2 |
| 20260901120828 | 59 | 107 | 0.0 | 0.0 | 0.00 | 0.00 | 0.00 | 78 | 1009.2 |
| 20260901120325 | 59 | 65 | 0.0 | 0.0 | 0.00 | 0.00 | 0.00 | 78 | 1009.2 |
| 20260901115819 | 59 | 83 | 0.0 | 0.0 | 0.00 | 0.00 | 0.00 | 78 | 1009.2 |
| 20260901115329 | 59 | 98 | 0.0 | 0.0 | 0.00 | 0.00 | 0.00 | 78 | 1009.2 |
| 20260901114844 | 59 | 97 | 0.0 | 0.0 | 0.00 | 0.00 | 0.00 | 77 | 1009.2 |
| 20260901114602 | 59 | 97 | 0.0 | 0.0 | 0.00 | 0.00 | 0.00 | 77 | 1008.2 |
| 20260901114317 | 59 | 99 | 0.0 | 0.0 | 0.00 | 0.00 | 0.00 | 77 | 1009.2 |
| 20260901113821 | 59 | 79 | 0.0 | 0.0 | 0.00 | 0.00 | 0.00 | 77 | 1009.2 |
| 20260901113322 | 59 | 65 | 0.0 | 0.0 | 0.00 | 0.00 | 0.00 | 77 | 1009.3 |
| 20260901113115 | 59 | 65 | 0.0 | 0.0 | 0.00 | 0.00 | 0.00 | 77 | 1008.2 |
| 20260901112838 | 60 | 65 | 0.0 | 0.0 | 0.00 | 0.00 | 0.00 | 77 | 1009.2 |
| 20260901112328 | 60 | 63 | 0.0 | 0.0 | 0.00 | 0.00 | 0.00 | 77 | 1009.2 |
| 20260901111838 | 60 | 79 | 0.0 | 0.0 | 0.00 | 0.00 | 0.00 | 76 | 1009.2 |
| 20260901111556 | 60 | 54 | 0.0 | 0.0 | 0.00 | 0.00 | 0.00 | 76 | 1008.3 |
| 20260901111331 | 60 | 83 | 0.0 | 0.0 | 0.00 | 0.00 | 0.00 | 76 | 1009.2 |
| 20260901110855 | 60 | 86 | 0.0 | 0.0 | 0.00 | 0.00 | 0.00 | 77 | 1009.2 |
| 20260901110335 | 60 | 84 | 0.0 | 0.0 | 0.00 | 0.00 | 0.00 | 77 | 1009.2 |
| 20260901110117 | 59 | 80 | 0.0 | 0.0 | 0.00 | 0.00 | 0.00 | 77 | 1008.2 |
| 20260901105821 | 60 | 79 | 0.0 | 0.0 | 0.00 | 0.00 | 0.00 | 77 | 1009.2 |
| 20260901105331 | 60 | 81 | 0.0 | 0.0 | 0.00 | 0.00 | 0.00 | 77 | 1009.2 |
| 20260901104831 | 60 | 81 | 0.0 | 0.0 | 0.00 | 0.00 | 0.00 | 76 | 1009.2 |
| 20260901104604 | 60 | 81 | 0.0 | 0.0 | 0.00 | 0.00 | 0.00 | 76 | 1008.2 |
| 20260901104342 | 60 | 79 | 0.0 | 0.0 | 0.00 | 0.00 | 0.00 | 76 | 1009.1 |
| 20260901103838 | 61 | 66 | 0.0 | 0.0 | 0.00 | 0.00 | 0.00 | 76 | 1009.0 |
| 20260901103323 | 61 | 80 | 0.0 | 0.0 | 0.00 | 0.00 | 0.00 | 76 | 1009.1 |
| 20260901103111 | 60 | 92 | 0.0 | 0.0 | 0.00 | 0.00 | 0.00 | 76 | 1008.1 |
| 20260901102832 | 61 | 98 | 0.0 | 0.0 | 0.00 | 0.00 | 0.00 | 77 | 1009.2 |
| 20260901102316 | 60 | 105 | 0.0 | 0.0 | 0.00 | 0.00 | 0.00 | 77 | 1009.2 |
| 20260901101823 | 60 | 95 | 0.0 | 0.0 | 0.00 | 0.00 | 0.00 | 78 | 1009.2 |
| 20260901101601 | 60 | 85 | 0.0 | 0.0 | 0.00 | 0.00 | 0.00 | 78 | 1008.1 |
| 20260901101354 | 60 | 81 | 0.0 | 0.0 | 0.00 | 0.00 | 0.00 | 78 | 1009.1 |
| 20260901100827 | 60 | 98 | 0.0 | 0.0 | 0.00 | 0.00 | 0.00 | 78 | 1009.1 |
| 20260901100345 | 60 | 101 | 0.0 | 0.0 | 0.00 | 0.00 | 0.00 | 78 | 1009.2 |
| 20260901100008 | 60 | 72 | 0.0 | 0.0 | 0.00 | 0.00 | 0.00 | 78 | 1008.2 |
| 20260901095829 | 61 | 69 | 0.0 | 2.0 | 0.00 | 0.00 | 0.00 | 77 | 1009.2 |
| 20260901095328 | 61 | 65 | 0.0 | 2.0 | 0.00 | 0.00 | 0.00 | 77 | 1009.2 |
| 20260901094819 | 61 | 43 | 0.0 | 0.0 | 0.00 | 0.00 | 0.00 | 76 | 1009.2 |
| 20260901094324 | 61 | 56 | 0.0 | 0.0 | 0.00 | 0.00 | 0.00 | 76 | 1009.2 |
| 20260901093817 | 61 | 68 | 0.0 | 0.0 | 0.00 | 0.00 | 0.00 | 75 | 1009.2 |
| 20260901093330 | 61 | 86 | 0.0 | 0.0 | 0.00 | 0.00 | 0.00 | 76 | 1009.2 |
| 20260901093006 | 60 | 71 | 0.0 | 0.0 | 0.00 | 0.00 | 0.00 | 77 | 1008.2 |
| 20260901092830 | 61 | 81 | 0.0 | 0.0 | 0.00 | 0.00 | 0.00 | 77 | 1009.2 |
| 20260901092322 | 61 | 82 | 0.0 | 0.0 | 0.00 | 0.00 | 0.00 | 77 | 1009.3 |
| 20260901091832 | 61 | 83 | 0.0 | 0.0 | 0.00 | 0.00 | 0.00 | 77 | 1009.3 |
| 20260901091515 | 61 | 42 | 0.0 | 0.0 | 0.00 | 0.00 | 0.00 | 78 | 1008.3 |
| 20260901091337 | 61 | 40 | 0.0 | 0.0 | 0.00 | 0.00 | 0.00 | 78 | 1009.3 |
| 20260901090827 | 61 | 56 | 0.0 | 0.0 | 0.00 | 0.00 | 0.00 | 76 | 1009.2 |
| 20260901090326 | 62 | 68 | 0.0 | 0.0 | 0.00 | 0.00 | 0.00 | 76 | 1009.2 |
| 20260901090104 | 61 | 76 | 0.0 | 0.0 | 0.00 | 0.00 | 0.00 | 75 | 1008.2 |
| 20260901085822 | 62 | 76 | 0.0 | 0.0 | 0.00 | 0.00 | 0.00 | 75 | 1009.3 |
| 20260901085336 | 62 | 80 | 0.0 | 0.0 | 0.00 | 0.00 | 0.00 | 75 | 1009.3 |
| 20260901084821 | 62 | 81 | 0.0 | 0.0 | 0.00 | 0.00 | 0.00 | 75 | 1009.4 |
| 20260901084602 | 62 | 75 | 0.0 | 0.0 | 0.00 | 0.00 | 0.00 | 75 | 1008.4 |
| 20260901084334 | 62 | 88 | 0.0 | 0.0 | 0.00 | 0.00 | 0.00 | 76 | 1009.5 |
| 20260901083323 | 62 | 91 | 0.0 | 0.0 | 0.00 | 0.00 | 0.00 | 75 | 1009.4 |
| 20260901083119 | 62 | 95 | 0.0 | 0.0 | 0.00 | 0.00 | 0.00 | 75 | 1008.4 |
| 20260901082822 | 62 | 94 | 0.0 | 0.0 | 0.00 | 0.00 | 0.00 | 75 | 1009.4 |
| 20260901082319 | 62 | 62 | 0.0 | 0.0 | 0.00 | 0.00 | 0.00 | 75 | 1009.4 |
| 20260901081825 | 62 | 68 | 0.0 | 0.0 | 0.00 | 0.00 | 0.00 | 75 | 1009.3 |
| 20260901081526 | 62 | 68 | 0.0 | 0.0 | 0.00 | 0.00 | 0.00 | 75 | 1008.2 |
| 20260901081340 | 62 | 68 | 0.0 | 0.0 | 0.00 | 0.00 | 0.00 | 75 | 1009.3 |
| 20260901080829 | 62 | 84 | 0.0 | 0.0 | 0.00 | 0.00 | 0.00 | 75 | 1009.3 |
| 20260901080325 | 62 | 85 | 0.0 | 0.0 | 0.00 | 0.00 | 0.00 | 75 | 1009.4 |
| 20260901080100 | 62 | 95 | 0.0 | 0.0 | 0.00 | 0.00 | 0.00 | 75 | 1008.4 |
| 20260901075833 | 62 | 96 | 0.0 | 0.0 | 0.00 | 0.00 | 0.00 | 76 | 1009.5 |
| 20260901075331 | 62 | 87 | 0.0 | 0.0 | 0.00 | 0.00 | 0.00 | 78 | 1009.4 |
| 20260901074831 | 62 | 86 | 0.0 | 0.0 | 0.00 | 0.00 | 0.00 | 78 | 1009.5 |
| 20260901074641 | 62 | 77 | 0.0 | 0.0 | 0.00 | 0.00 | 0.00 | 78 | 1008.4 |
| 20260901074330 | 63 | 79 | 0.0 | 0.0 | 0.00 | 0.00 | 0.00 | 79 | 1009.4 |
| 20260901073911 | 62 | 84 | 0.0 | 0.0 | 0.00 | 0.00 | 0.00 | 78 | 1009.4 |
| 20260901073344 | 62 | 94 | 0.0 | 0.0 | 0.00 | 0.00 | 0.00 | 75 | 1009.4 |
| 20260901072822 | 62 | 93 | 0.0 | 0.0 | 0.00 | 0.00 | 0.00 | 75 | 1009.4 |
| 20260901072349 | 62 | 101 | 0.0 | 0.0 | 0.00 | 0.00 | 0.00 | 75 | 1009.3 |
| 20260901071823 | 62 | 90 | 0.0 | 0.0 | 0.00 | 0.00 | 0.00 | 75 | 1009.3 |
| 20260901071604 | 62 | 90 | 0.0 | 0.0 | 0.00 | 0.00 | 0.00 | 76 | 1008.3 |
| 20260901071333 | 63 | 92 | 0.0 | 0.0 | 0.00 | 0.00 | 0.00 | 75 | 1009.4 |
| 20260901070822 | 63 | 91 | 0.0 | 0.0 | 0.00 | 0.00 | 0.00 | 74 | 1009.3 |
| 20260901070345 | 63 | 89 | 0.0 | 0.0 | 0.00 | 0.00 | 0.00 | 74 | 1009.4 |
| 20260901070103 | 62 | 89 | 0.0 | 0.0 | 0.00 | 0.00 | 0.00 | 74 | 1008.4 |
| 20260901065828 | 63 | 89 | 0.0 | 0.0 | 0.00 | 0.00 | 0.00 | 74 | 1009.3 |
| 20260901065317 | 63 | 91 | 0.0 | 0.0 | 0.00 | 0.00 | 0.00 | 74 | 1009.3 |
| 20260901064838 | 63 | 91 | 0.0 | 0.0 | 0.00 | 0.00 | 0.00 | 73 | 1009.2 |
| 20260901064556 | 63 | 91 | 0.0 | 0.0 | 0.00 | 0.00 | 0.00 | 73 | 1008.3 |
| 20260901064316 | 63 | 91 | 0.0 | 0.0 | 0.00 | 0.00 | 0.00 | 73 | 1009.3 |
| 20260901063829 | 64 | 90 | 0.0 | 0.0 | 0.00 | 0.00 | 0.00 | 73 | 1009.3 |
| 20260901063318 | 64 | 88 | 0.0 | 0.0 | 0.00 | 0.00 | 0.00 | 73 | 1009.4 |
| 20260901063105 | 63 | 90 | 0.0 | 0.0 | 0.00 | 0.00 | 0.00 | 73 | 1008.4 |
| 20260901062819 | 64 | 95 | 0.0 | 0.0 | 0.00 | 0.00 | 0.00 | 72 | 1009.3 |
| 20260901062323 | 64 | 95 | 0.0 | 0.0 | 0.00 | 0.00 | 0.00 | 72 | 1009.3 |
| 20260901061822 | 64 | 95 | 0.0 | 0.0 | 0.00 | 0.00 | 0.00 | 72 | 1009.2 |
| 20260901061607 | 64 | 95 | 0.0 | 0.0 | 0.00 | 0.00 | 0.00 | 72 | 1008.3 |
| 20260901061359 | 64 | 96 | 0.0 | 0.0 | 0.00 | 0.00 | 0.00 | 72 | 1009.2 |
| 20260901060850 | 64 | 94 | 0.0 | 0.0 | 0.00 | 0.00 | 0.00 | 74 | 1009.2 |
| 20260901060332 | 64 | 108 | 0.0 | 0.0 | 0.00 | 0.00 | 0.00 | 73 | 1009.3 |
| 20260901060017 | 64 | 108 | 0.0 | 0.0 | 0.00 | 0.00 | 0.00 | 73 | 1008.4 |
| 20260901055839 | 64 | 107 | 0.0 | 0.0 | 0.00 | 0.00 | 0.00 | 73 | 1009.3 |
| 20260901055341 | 64 | 110 | 0.0 | 0.0 | 0.00 | 0.00 | 0.00 | 72 | 1009.3 |
| 20260901054825 | 64 | 106 | 0.0 | 0.0 | 0.00 | 0.00 | 0.00 | 72 | 1009.4 |
| 20260901054604 | 64 | 112 | 0.0 | 0.0 | 0.00 | 0.00 | 0.00 | 72 | 1008.5 |
| 20260901054321 | 64 | 112 | 0.0 | 0.0 | 0.00 | 0.00 | 0.00 | 72 | 1009.4 |
| 20260901053820 | 64 | 111 | 0.0 | 0.0 | 0.00 | 0.00 | 0.00 | 72 | 1009.4 |
| 20260901053318 | 64 | 103 | 0.0 | 0.0 | 0.00 | 0.00 | 0.00 | 72 | 1009.4 |
| 20260901053107 | 64 | 101 | 0.0 | 0.0 | 0.00 | 0.00 | 0.00 | 73 | 1008.5 |
| 20260901052852 | 65 | 105 | 0.0 | 0.0 | 0.00 | 0.00 | 0.00 | 72 | 1009.4 |
| 20260901052348 | 65 | 103 | 0.0 | 0.0 | 0.00 | 0.00 | 0.00 | 72 | 1009.4 |
| 20260901051837 | 65 | 101 | 0.0 | 0.0 | 0.00 | 0.00 | 0.00 | 71 | 1009.4 |
| 20260901051607 | 65 | 101 | 0.0 | 0.0 | 0.00 | 0.00 | 0.00 | 72 | 1008.4 |
| 20260901051319 | 65 | 103 | 0.0 | 0.0 | 0.00 | 0.00 | 0.00 | 72 | 1009.4 |
| 20260901050821 | 65 | 103 | 0.0 | 0.0 | 0.00 | 0.00 | 0.00 | 71 | 1009.3 |
| 20260901050344 | 65 | 101 | 0.0 | 0.0 | 0.00 | 0.00 | 0.00 | 71 | 1009.4 |
| 20260901050053 | 65 | 103 | 0.0 | 0.0 | 0.00 | 0.00 | 0.00 | 72 | 1008.4 |
| 20260901045833 | 65 | 66 | 0.0 | 0.0 | 0.00 | 0.00 | 0.00 | 72 | 1009.4 |
| 20260901045340 | 65 | 131 | 0.0 | 0.0 | 0.00 | 0.00 | 0.00 | 70 | 1009.4 |
| 20260901044834 | 66 | 132 | 0.0 | 0.0 | 0.00 | 0.00 | 0.00 | 70 | 1009.4 |
| 20260901044602 | 65 | 132 | 0.0 | 0.0 | 0.00 | 0.00 | 0.00 | 70 | 1008.4 |
| 20260901044323 | 66 | 100 | 0.0 | 0.0 | 0.00 | 0.00 | 0.00 | 70 | 1009.4 |
| 20260901043835 | 66 | 100 | 0.0 | 0.0 | 0.00 | 0.00 | 0.00 | 72 | 1009.4 |
| 20260901043328 | 66 | 100 | 0.0 | 0.0 | 0.00 | 0.00 | 0.00 | 73 | 1009.4 |
| 20260901043108 | 66 | 101 | 0.0 | 0.0 | 0.00 | 0.00 | 0.00 | 72 | 1008.5 |
| 20260901042818 | 66 | 101 | 0.0 | 0.0 | 0.00 | 0.00 | 0.00 | 71 | 1009.4 |
| 20260901042321 | 66 | 101 | 0.0 | 0.0 | 0.00 | 0.00 | 0.00 | 69 | 1009.4 |
| 20260901041505 | 66 | 102 | 0.0 | 0.0 | 0.00 | 0.00 | 0.00 | 70 | 1008.4 |
| 20260901041330 | 67 | 100 | 0.0 | 0.0 | 0.00 | 0.00 | 0.00 | 71 | 1009.4 |
| 20260901040830 | 68 | 101 | 0.0 | 0.0 | 0.00 | 0.00 | 0.00 | 69 | 1009.4 |
| 20260901040326 | 68 | 129 | 0.0 | 0.0 | 0.00 | 0.00 | 0.00 | 68 | 1009.3 |
| 20260901040115 | 67 | 127 | 0.0 | 0.0 | 0.00 | 0.00 | 0.00 | 68 | 1008.4 |
| 20260901035819 | 67 | 74 | 0.0 | 0.0 | 0.00 | 0.00 | 0.00 | 67 | 1009.4 |
| 20260901035325 | 67 | 73 | 0.0 | 0.0 | 0.00 | 0.00 | 0.00 | 66 | 1009.4 |
| 20260901034835 | 67 | 74 | 0.0 | 0.0 | 0.00 | 0.00 | 0.00 | 65 | 1009.4 |
| 20260901034520 | 67 | 73 | 0.0 | 0.0 | 0.00 | 0.00 | 0.00 | 64 | 1008.4 |
| 20260901034335 | 68 | 78 | 0.0 | 0.0 | 0.00 | 0.00 | 0.00 | 65 | 1009.4 |
| 20260901033837 | 68 | 56 | 0.0 | 0.0 | 0.00 | 0.00 | 0.00 | 64 | 1009.4 |
| 20260901033324 | 69 | 203 | 0.0 | 0.0 | 0.00 | 0.00 | 0.00 | 60 | 1009.3 |
| 20260901033101 | 68 | 204 | 0.0 | 0.0 | 0.00 | 0.00 | 0.00 | 60 | 1008.3 |
| 20260901032833 | 69 | 204 | 0.0 | 0.0 | 0.00 | 0.00 | 0.00 | 60 | 1009.2 |
| 20260901032356 | 69 | 100 | 0.0 | 0.0 | 0.00 | 0.00 | 0.00 | 61 | 1009.2 |
| 20260901031823 | 69 | 98 | 0.0 | 0.0 | 0.00 | 0.00 | 0.00 | 60 | 1009.1 |